Погода в Ледисмите

ЮАР     28°33′01″S   29°46′56″E
темп.,
°C
ветер,
м/с
пор.,
м/с
влажн.,
%
обл.,
%
осадки,
мм/ч
давл.,
гПа
погр.,
м
26 февраля, пт
пт2623:00+16юв269281 0.9 1015390
02:00+15ю119290 1.1 1015184
05:00+15ююв1292100 0.0 1015181
08:00+16вюв1184100 0.1 1017255
11:00+18в337494 0.1 1016596
14:00+21вюв447278 2.6 1014902
17:00+19юв578284 5.7 1015692
20:00+16юв379392 7.7 1017354
27 февраля, сб
сб2723:00+15вюв2595100 0.9 1019307
02:00+15юв1296100 1.8 1019177
05:00+14вюв1297100 0.1 1019156
08:00+16вюв129198 0.1 1019286
11:00+22ссв226062 0.1 10181064
14:00+25вюв214646 0.1 10151616
17:00+24вюв55500 0.0 10151397
20:00+17св510866 0.1 1019374
28 февраля, вс
вс2823:00+16всв358384 0.0 1020328
02:00+14всв119277 0.0 101928
05:00+15св118397 0.0 1019120
08:00+17в227769 0.0 1020417
11:00+22юв225866 0.0 10181101
14:00+26вюв333648 0.0 10161710
17:00+25в554115 0.0 10161275
20:00+16в498037 0.0 1020308
1 марта, пн
пн123:00+14св239419 0.0 102299
02:00+16ссв128157 0.0 1020287
05:00+12зсз119517 0.0 102123
08:00+16ссз12778 0.0 1020347
11:00+23св22470 0.0 10181120
14:00+27всв33260 0.0 10161756
17:00+26св23310 0.0 10151802
20:00+17св33705 0.0 101869
2 марта, вт
вт223:00+14вюв01900 0.0 102023
02:00+12ссз12920 0.0 101923
05:00+11сз11910 0.0 101923
08:00+17з12680 0.0 1018271
11:00+25св02430 0.0 1015738
14:00+29вюв22260 0.0 10121769
17:00+28в32290 0.0 10121022
20:00+19всв49620 0.0 1016186